Regional Weather Roundup
Issued by NWS

Home | Current Version | Previous Version | Text Only | Print | Product List | Glossary On
Versions: 1 2 3 4 5 6 7 8 9 10 11 12 13 14 15 16 17 18 19 20 21 22 23 24 25 26 27 28 29 30 31 32 33 34 35 36 37 38 39 40 41 42 43 44 45 46 47 48 49 50
000
ASUS43 KDTX 180510
RWRMI
MICHIGAN HOURLY REGIONAL WEATHER ROUNDUP
NATIONAL WEATHER SERVICE DETROIT/PONTIAC MI
1200 AM EST SAT NOV 18 2017

NOTE: "FAIR" INDICATES FEW OR NO CLOUDS BELOW 12,000 FEET WITH NO
SIGNIFICANT WEATHER AND/OR OBSTRUCTION TO VISIBILITY.

MIZ047>049-052>055-059>063-066>070-074>076-081>083-180600-
SOUTHEAST LOWER MICHIGAN

CITY           SKY/WX    TMP DP  RH WIND       PRES   REMARKS
ADRIAN         HVY RAIN  40  37  89 SW13      29.73R FOG     WCI  32
ALMA           LGT SNOW  40  39  97 S7        29.64R
ANN ARBOR      HVY RAIN  40  37  89 S7        29.71S FOG
BAD AXE        LGT RAIN  40  36  84 S16G23    29.65F WCI  32
CARO           LGT RAIN  40  37  87 S9        29.62F WCI  34
DETROIT CITY   LGT RAIN  55  35  47 S10       29.72F
DETROIT        RAIN      43  36  76 S10       29.72F
FLINT          HVY RAIN  41  36  82 S16G23    29.65F
GROSSE ILE     LGT RAIN  43  37  80 S10       29.72S
HILLSDALE      RAIN      39  36  87 S16G30    29.65F WCI  30
HOWELL         MIX PCPN  39  38  94 S14G20    29.65F WCI  31

CITY           SKY/WX    TMP DP  RH WIND       PRES   REMARKS
JACKSON        LGT RAIN  41  39  93 S16       29.65F FOG
LAMBERTVILLE   MIX PCPN  44  37  74 SW7       29.74R
LANSING        HVY RAIN  40  39  97 S15G24    29.65R FOG     WCI  32
LAPEER         RAIN      41  35  79 S14G22    29.66F
MASON          HVY RAIN  41  38  90 S12G22    29.64F
MONROE         RAIN      44  35  71 S9        29.71S
MT. CLEMENS    LGT RAIN  43  39  85 S14       29.69F
PONTIAC        LGT RAIN  40  37  89 S8        29.67F FOG     WCI  34
PORT HOPE        N/A     40  35  83 SE15      29.64F WCI  32
PORT HURON     CLOUDY    41  34  75 S10G18    29.69F
TRI CITIES     RAIN      41  39  93 SW8       29.65S FOG
MIDLAND        DRIZZLE   40  38  93 SW3       29.65R
TROY           LGT RAIN  44  37  74 S7        29.72S
SAGINAW HB     MIX PCPN  41  36  81 S13       29.63S
$$
MIZ043>046-050>051-056>058-064>065-071>073-077>080-180600-
SOUTHWEST LOWER MICHIGAN

CITY           SKY/WX    TMP DP  RH WIND       PRES   REMARKS
BATTLE CREEK   LGT RAIN  41  39  93 S17G24    29.63F
BENTON HARBOR  LGT RAIN  44  40  85 S9        29.59F FOG
BIG RAPIDS     LGT SNOW  38  37  95 CALM      29.60F
COLDWATER      HVY RAIN  41  40  99 S8G18     29.65F
FREMONT        DRIZZLE   39  39 100 S5        29.60F
HOLLAND        LGT RAIN  43  41  93 S8        29.62F FOG
GRAND RAPIDS   LGT RAIN  42  42 100 S12       29.62F FOG
IONIA          RAIN      41  40  95 S9        29.63F
KALAMAZOO      LGT RAIN  41  38  89 S16G24    29.62F FOG
LUDINGTON      HVY RAIN  39  38  96 SE5       29.58F
MARSHALL       LGT RAIN  40  39  97 S15G21    29.63F WCI  32
MOUNT PLEASANT MIX PCPN  40  38  93 S3        29.62F
MUSKEGON       LGT RAIN  45  42  89 SW15      29.61F FOG
SOUTH HAVEN    RAIN      43  41  93 S6        29.61F
$$
MIZ016>042-180600-
NORTHERN LOWER MICHIGAN

CITY           SKY/WX    TMP DP  RH WIND       PRES   REMARKS
ALPENA         LGT RAIN  36  36 100 SE5       29.67F FOG     WCI  32
BEAVER ISLAND  LGT RAIN  38  37  97 S3        29.59F
BELLAIRE       MIX PCPN  36  36 100 CALM      29.62F
CADILLAC       RAIN      36  36  99 S3        29.58F
CHARLEVOIX     LGT RAIN  36  36 100 E8        29.63F WCI  29
FRANKFORT      RAIN      40  40 100 SE6       29.57F
GAYLORD        LGT RAIN  34  33  96 S3        29.61F FOG
GRAYLING       LGT RAIN  35  34  94 CALM      29.62F
HARBOR SPRINGS LGT SNOW  34  33  98 E6        29.62F WCI  29
HOUGHTON LAKE  LGT RAIN  36  34  92 S3        29.62F FOG
MANISTEE       LGT RAIN  38  38 100 E6        29.58F FOG     WCI  33
OSCODA         LGT SNOW  37  36  94 S8        29.66F WCI  31
PELLSTON       CLOUDY    35  34  96 SE6       29.63F FOG     WCI  30
ROGERS CITY    RAIN      35  34  96 CALM      29.67S
TRAVERSE CITY  LGT RAIN  37  36  96 E5        29.59F FOG     WCI  33
$$
MIZ007>008-015-180600-
EASTERN UPPER MICHIGAN

CITY           SKY/WX    TMP DP  RH WIND       PRES   REMARKS
KINROSS        RAIN      34  34 100 SE8       29.63F FOG     WCI  27
MACKINAC ISLAN MIX PCPN  37  36  97 SE10G16   29.62F WCI  29
NEWBERRY       MIX PCPN  32  31  96 E6        29.58F WCI  26
S. S. MARIE    LGT RAIN  36  35  96 E5        29.64F FOG     WCI  32
MUNISING         N/A     37  36  96 CALM      29.58F
$$
MIZ004>006-011>014-085-180600-
CENTRAL UPPER MICHIGAN

CITY           SKY/WX    TMP DP  RH WIND       PRES   REMARKS
MANISTIQUE     LGT RAIN  37  32  82 N3        29.57F
ESCANABA       CLOUDY    37  36  96 N3        29.57F FOG
MENOMINEE      CLOUDY    37  36  96 CALM      29.59S FOG
SAWYER-GWINN   CLOUDY    32  32 100 CALM      29.56F FOG
$$
MIZ001>003-009>011-084-180600-
WESTERN UPPER MICHIGAN

CITY           SKY/WX    TMP DP  RH WIND       PRES   REMARKS
IRON MOUNTAIN  CLOUDY    33  31  92 NW5       29.58R FOG     WCI  29
HOUGHTON       CLOUDY    34  31  88 CALM      29.60S
COPPER HARBOR    N/A     38  35  89 N10       29.60R WCI  31
IRONWOOD       CLOUDY   N/A N/A N/A W3        29.63F FOG
$$

ABBREVIATIONS USED IN REMARKS
   TC - TEMPERATURE IN CELSIUS
  WCI - WIND CHILL INDEX
   HX - HEAT INDEX
  VSB - VISIBILITY





USA.gov is the U.S. government's official web portal to all federal, state and local government web resources and services.